Find Starlink 34266

NORAD ID: 65093 Int'l Des: 2025-167 Owner: SPXS Country: US Constellation: starlink operational
LEOCIRCULAR

Current View

Loading 3D Globe...

About Starlink 34266

Description loading...

Upcoming Passes

Passes for default location (London). Set your location on the main map for personalized predictions.

Altitude History

Loading altitude history...

Two-Line Element Set

1 65093U 25167R 26146.07386666 .00027832 00000-0 64663-3 0 9995
2 65093 53.1602 24.6638 0001097 74.4417 285.6710 15.42162758 45363
Epoch: May 26, 2026 • Age: 11 hours

Current Status

Altitude 443.1 km
Velocity 7.65 km/s
Sub-Earth Point 42.82°N, 11.62°W
Launch Date Aug 4, 2025
Age 0.8 years
Type internet

Technical Details

Classification Payload
Mass 575.00 kg
Dry Mass 530.00 kg
Total Mass 575.00 kg
Length 0.30 m
Diameter 4.10 m
Span 29.00 m
Shape Box + pan
Manufacturer SPXS
Bus Type Starlink V2MO
Phase Status In Orbit
Owner/State SPXS/US

Most Searched